Tracking 17842 objects as of 29-August-2016
HD Live streaming from Space Station
objects crossing your sky now

COSMOS 1023

Track COSMOS 1023 now!
10-day predictions
COSMOS 1023 is classified as:


NORAD ID: 10961
Int'l Code: 1978-063A
Perigee: 766.0 km
Apogee: 789.1 km
Inclination: 74.1 °
Period: 100.3 minutes
Semi major axis: 7148 km
RCS: 3.0969 m2 (large)
Launch date: June 21, 1978
Source: Commonwealth of Independent States (former USSR) (CIS)
Launch site: PLESETSK MISSILE AND SPACE COMPLEX (PKMTR)
Your satellite tracking list
Your tracking list is empty





NASA's NSSDC Master Catalog

Two Line Element Set (TLE):
1 10961U 78063A   16242.26448211  .00000008  00000-0  11562-4 0  9991
2 10961  74.0773 170.1682 0016130 163.4506 196.7177 14.36399735999216
Source of the keplerian elements: AFSPC

N2YO: 468